Tracking 19920 objects as of 15-Oct-2019
HD Live streaming from Space Station
objects crossing your sky now

DIRECTV 6 (TEMPO 2)

Track DIRECTV 6 (TEMPO 2) now!
DIRECTV 6 (TEMPO 2) is classified as:


NORAD ID: 24748
Int'l Code: 1997-011A
Perigee: 36,021.1 km
Apogee: 36,268.8 km
Inclination: 10.1 °
Period: 1,454.1 minutes
Semi major axis: 42515 km
RCS: 12.5892 m2 (large)
Launch date: March 8, 1997
Source: United States (US)
Launch site: AIR FORCE EASTERN TEST RANGE (AFETR)

Direct-to-home TV; 32 Ku-band transponders
aabbcc
Your satellite tracking list
Your tracking list is empty




NASA's NSSDC Master Catalog

Two Line Element Set (TLE):
1 24748U 97011A   19287.04539856 -.00000084  00000-0  00000+0 0  9992
2 24748  10.1385  38.6005 0029134 259.7692 118.5197  0.99031823 82261
Source of the keplerian elements: AFSPC